Casa Grande, AZ

4:37 PM MST on November 16, 2019 (GMT -0700)
Casa Grande Municipal

Weather History for KCGZ - September, 2019

Change the Weather History Date:

Tuesday, September 17, 2019

  Actual Average Record
Temperature  
Mean Temperature 83 °F -  
Max Temperature 96 °F 95 °F 104 °F (2010)
Min Temperature 70 °F 68 °F 53 °F (2010)
Cooling Degree Days 18    
Growing Degree Days 33 (Base 50)    
Moisture  
Dew Point 59 °F    
Average Humidity 47    
Maximum Humidity 71    
Minimum Humidity 27    
Precipitation  
Precipitation 0.00 in - - ()
Sea Level Pressure  
Sea Level Pressure 29.87 in    
Wind  
Wind Speed 4 mph ()    
Max Wind Speed 10 mph    
Max Gust Speed -    
Visibility 10.0 miles    
Events      
Averages and records for this station are not official NWS values.
T = Trace of Precipitation, MM = Missing Value Source: Averaged Metar Reports

Daily Weather History Graph

Daily Weather History Graph

Search for Another Location

Airport or City:

Astronomy

Sep. 17, 2019 Rise Set
Actual Time 6:11 AM MST 6:30 PM MST
Civil Twilight 5:47 AM MST 6:55 PM MST
Nautical Twilight 5:18 AM MST 7:24 PM MST
Astronomical Twilight 4:48 AM MST 7:53 PM MST
Moon 8:45 PM MST (9/17) 9:11 AM MST (9/17)
Length of Visible Light 13h 08m
Length of Day
12h 18m
Waning Gibbous, 88% of the Moon is Illuminated
Sep 17
Waning Gibbous
Sep 21
Last Quarter
Sep 28
New
Oct 5
First Quarter
Oct 13
Full

Hourly Weather History & Observations

Time (MST) Temp. Heat Index Dew Point Humidity Pressure Visibility Wind Dir Wind Speed Gust Speed Precip Events Conditions
12:56 AM 73.0 °F - 62.1 °F 68% 29.87 in 10.0 mi ESE 6.9 mph - N/A   Clear
1:56 AM 72.0 °F - 61.0 °F 68% 29.87 in 10.0 mi ESE 4.6 mph - N/A   Clear
2:56 AM 71.1 °F - 61.0 °F 70% 29.88 in 10.0 mi Calm Calm - N/A   Clear
3:56 AM 72.0 °F - 61.0 °F 68% 29.89 in 10.0 mi East 4.6 mph - N/A   Clear
4:56 AM 70.0 °F - 60.1 °F 71% 29.91 in 10.0 mi Calm Calm - N/A   Clear
5:56 AM 71.1 °F - 61.0 °F 70% 29.92 in 10.0 mi SE 4.6 mph - N/A   Clear
6:56 AM 72.0 °F - 62.1 °F 71% 29.93 in 10.0 mi East 5.8 mph - N/A   Clear
7:56 AM 77.0 °F - 61.0 °F 58% 29.94 in 10.0 mi SE 9.2 mph - N/A   Clear
8:56 AM 78.1 °F - 62.1 °F 58% 29.95 in 10.0 mi ESE 8.1 mph - N/A   Clear
9:56 AM 82.9 °F 84.4 °F 64.0 °F 53% 29.95 in 10.0 mi East 5.8 mph - N/A   Clear
10:56 AM 88.0 °F 87.9 °F 61.0 °F 40% 29.93 in 10.0 mi SSE 5.8 mph - N/A   Clear
11:56 AM 90.0 °F 90.0 °F 61.0 °F 38% 29.91 in 10.0 mi Variable 4.6 mph - N/A   Clear
12:56 PM 91.9 °F 91.5 °F 60.1 °F 34% 29.88 in 10.0 mi SSW 10.4 mph - N/A   Clear
1:56 PM 93.9 °F 92.6 °F 57.0 °F 29% 29.86 in 10.0 mi Variable 6.9 mph - N/A   Clear
2:56 PM 96.1 °F 94.8 °F 57.0 °F 27% 29.83 in 10.0 mi South 8.1 mph - N/A   Clear
3:56 PM 96.1 °F 95.2 °F 57.9 °F 28% 29.81 in 10.0 mi South 5.8 mph - N/A   Clear
4:56 PM 96.1 °F 94.8 °F 57.0 °F 27% 29.80 in 10.0 mi West 5.8 mph - N/A   Clear
5:56 PM 95.0 °F 94.0 °F 57.9 °F 29% 29.80 in 10.0 mi Variable 3.5 mph - N/A   Clear
6:56 PM 91.9 °F 90.8 °F 57.9 °F 32% 29.80 in 10.0 mi WNW 6.9 mph - N/A   Clear
7:56 PM 89.1 °F 88.0 °F 57.9 °F 35% 29.81 in 10.0 mi NW 4.6 mph - N/A   Clear
8:56 PM 88.0 °F 86.7 °F 57.0 °F 35% 29.82 in 10.0 mi Calm Calm - N/A   Clear
9:56 PM 86.0 °F 84.9 °F 57.0 °F 37% 29.82 in 10.0 mi East 3.5 mph - N/A   Clear
10:56 PM 81.0 °F 80.7 °F 55.0 °F 41% 29.82 in 10.0 mi Calm Calm - N/A   Clear
11:56 PM 80.1 °F 80.1 °F 55.0 °F 42% 29.82 in 10.0 mi ESE 4.6 mph - N/A   Clear